Powrót do katalogu

STARLINK-3898

AktywnyŁącznośćVLEO
NORAD 52458·PAYLOAD·🇺🇸 United States

Wystrzelony May 6, 2022 z Cape Canaveral Space Force Station

Loading…

Następne Przeloty (najbliższe 24 godziny)

TLE

ŚwieżeSource: CelesTrak SupGP

Epoka: Sep 15, 2026, 02:03 UTC

1 52458C 22049H   26258.08590278  .00027960  00000+0  84920-3 0  2580
2 52458  53.1573 294.7599 0001182  91.3021 346.6111 15.33505234    17

Śledź STARLINK-3898 w czasie rzeczywistym z AllMySat

Download on the App Store